| State | Missouri | Latest | Low (4210 cfs) | |
| River | Osage River | Rating | Observed | Estimated |
| Updated | 2026-05-10 6:45 (56 minutes ago) | Flood - The river is flooding. Obstacles can be treacherous or deadly. The river should be avoided at this stage for casual trips and definitely for the inexperienced. Trips should be attempted only with protective gear and equipment.Flood | (none) | 37116 |
| Discharge | 4210 cfs (median: 5560 cfs) | High - The river is high and potentially dangerous, especially for the young and / or inexperienced. Normal stream obstacles are sometimes difficult to navigate. Extended distances can be attempted, but canoe travel may not be advisable.High | (none) | 8056 |
| Height | 15.28 feet | Good - Conditions are ideal for a canoe or kayak. Boats typically will drag on fewer than one-quarter of riffles, if at all, and portages are unnecessary or rare. Normal float lengths can be attempted without a problem.Good | (none) | 4366 |
| Trend | Falling (falling over 24 hours) | Low - River is low but can still be floated. Some riffles are okay but most come with significant dragging and might need a portage. Float lengths should be reduced to accommodate low flow, dragging, and portages.Low | (none) | 884 |
| USGS | USGS Site ( Duck Duck Go Maps) | Poor - River is too low to float comfortably. Most or all riffles will drag or must be portaged and some obstacles (such as slick shelf rock) cause undue problems. Avoid the river at this stage for casual paddling trips.Poor | (none) | 50 |
| Date | Start | End | Distance | Condition | Discharge | Height | Fishing | Details |
|---|
A total of 0 rows are displayed.
BLG - Bluegill
CCF - Channel Catfish
CP - Chain Pickerel
FWD - Freshwater Drum
GSF - Green Sunfish
KSB - Kentucky Spotted Bass
LMB - Largemouth Bass
LSF - Longear Sunfish
RB - Rock Bass / Goggle Eye
RSF - Redear Sunfish
RT - Rainbow Trout
SMB - Smallmouth Bass
WB - White Bass
WF - Whitefish
WL - WalleyeThe classic River Trips application is still available for use. It is updated with the new system using a data retrofit. It is no longer maintained. The original River Trips application is no longer updated (as of 1 Dec 2016) but can be checked for errors or for the condition of the data before it was converted to the new system.
| Observation | Height | Discharge | Maximum Discharge | Minimum Discharge | Mean Discharge | P05 | P10 | P20 | P25 | P50 (Median) | P75 | P80 | P90 | P95 |
|---|---|---|---|---|---|---|---|---|---|---|---|---|---|---|
| 2026-05-10 06:45 | 15.28 | 4210 | 37100 (2019) | 619 (2014) | 10100 | 639 | 821 | 839 | 5560 | 17400 | 21900 | 35800 | ||
| 2026-05-10 05:45 | 15.31 | 4480 | 37100 (2019) | 619 (2014) | 10100 | 639 | 821 | 839 | 5560 | 17400 | 21900 | 35800 | ||
| 2026-05-10 04:45 | 15.35 | 4460 | 37100 (2019) | 619 (2014) | 10100 | 639 | 821 | 839 | 5560 | 17400 | 21900 | 35800 | ||
| 2026-05-10 03:45 | 15.39 | 4470 | 37100 (2019) | 619 (2014) | 10100 | 639 | 821 | 839 | 5560 | 17400 | 21900 | 35800 | ||
| 2026-05-10 02:45 | 15.44 | 4670 | 37100 (2019) | 619 (2014) | 10100 | 639 | 821 | 839 | 5560 | 17400 | 21900 | 35800 | ||
| 2026-05-10 01:45 | 15.49 | 4460 | 37100 (2019) | 619 (2014) | 10100 | 639 | 821 | 839 | 5560 | 17400 | 21900 | 35800 | ||
| 2026-05-10 00:45 | 15.54 | 4700 | 37100 (2019) | 619 (2014) | 10100 | 639 | 821 | 839 | 5560 | 17400 | 21900 | 35800 | ||
| 2026-05-09 23:45 | 15.58 | 4670 | 37100 (2019) | 619 (2014) | 10100 | 639 | 821 | 839 | 5560 | 17400 | 21900 | 35800 | ||
| 2026-05-09 22:45 | 15.63 | 4800 | 34800 (2019) | 341 (2014) | 10500 | 419 | 1140 | 1210 | 6630 | 14500 | 26000 | 34300 | ||
| 2026-05-09 21:45 | 15.68 | 4860 | 34800 (2019) | 341 (2014) | 10500 | 419 | 1140 | 1210 | 6630 | 14500 | 26000 | 34300 | ||
| 2026-05-09 20:45 | 15.73 | 5060 | 34800 (2019) | 341 (2014) | 10500 | 419 | 1140 | 1210 | 6630 | 14500 | 26000 | 34300 | ||
| 2026-05-09 19:45 | 15.78 | 5000 | 34800 (2019) | 341 (2014) | 10500 | 419 | 1140 | 1210 | 6630 | 14500 | 26000 | 34300 | ||
| 2026-05-09 18:45 | 15.81 | 5090 | 34800 (2019) | 341 (2014) | 10500 | 419 | 1140 | 1210 | 6630 | 14500 | 26000 | 34300 | ||
| 2026-05-09 17:45 | 15.85 | 5330 | 34800 (2019) | 341 (2014) | 10500 | 419 | 1140 | 1210 | 6630 | 14500 | 26000 | 34300 | ||
| 2026-05-09 16:45 | 15.89 | 5430 | 34800 (2019) | 341 (2014) | 10500 | 419 | 1140 | 1210 | 6630 | 14500 | 26000 | 34300 | ||
| 2026-05-09 15:45 | 15.97 | 5570 | 34800 (2019) | 341 (2014) | 10500 | 419 | 1140 | 1210 | 6630 | 14500 | 26000 | 34300 | ||
| 2026-05-09 14:45 | 15.99 | 5540 | 34800 (2019) | 341 (2014) | 10500 | 419 | 1140 | 1210 | 6630 | 14500 | 26000 | 34300 | ||
| 2026-05-09 13:45 | 16.01 | 5580 | 34800 (2019) | 341 (2014) | 10500 | 419 | 1140 | 1210 | 6630 | 14500 | 26000 | 34300 | ||
| 2026-05-09 12:45 | 16.07 | 5400 | 34800 (2019) | 341 (2014) | 10500 | 419 | 1140 | 1210 | 6630 | 14500 | 26000 | 34300 | ||
| 2026-05-09 11:45 | 16.10 | 5370 | 34800 (2019) | 341 (2014) | 10500 | 419 | 1140 | 1210 | 6630 | 14500 | 26000 | 34300 | ||
| 2026-05-09 10:45 | 16.16 | 5430 | 34800 (2019) | 341 (2014) | 10500 | 419 | 1140 | 1210 | 6630 | 14500 | 26000 | 34300 | ||
| 2026-05-09 09:45 | 16.19 | 5320 | 34800 (2019) | 341 (2014) | 10500 | 419 | 1140 | 1210 | 6630 | 14500 | 26000 | 34300 | ||
| 2026-05-09 08:45 | 16.24 | 5220 | 34800 (2019) | 341 (2014) | 10500 | 419 | 1140 | 1210 | 6630 | 14500 | 26000 | 34300 | ||
| 2026-05-09 07:45 | 16.28 | 5270 | 34800 (2019) | 341 (2014) | 10500 | 419 | 1140 | 1210 | 6630 | 14500 | 26000 | 34300 | ||
| 2026-05-09 06:45 | 16.34 | 5450 | 34800 (2019) | 341 (2014) | 10500 | 419 | 1140 | 1210 | 6630 | 14500 | 26000 | 34300 | ||
| 2026-05-09 05:45 | 16.38 | 5540 | 34800 (2019) | 341 (2014) | 10500 | 419 | 1140 | 1210 | 6630 | 14500 | 26000 | 34300 | ||
| 2026-05-09 04:45 | 16.42 | 5430 | 34800 (2019) | 341 (2014) | 10500 | 419 | 1140 | 1210 | 6630 | 14500 | 26000 | 34300 | ||
| 2026-05-09 03:45 | 16.46 | 5160 | 34800 (2019) | 341 (2014) | 10500 | 419 | 1140 | 1210 | 6630 | 14500 | 26000 | 34300 | ||
| 2026-05-09 02:45 | 16.51 | 5460 | 34800 (2019) | 341 (2014) | 10500 | 419 | 1140 | 1210 | 6630 | 14500 | 26000 | 34300 | ||
| 2026-05-09 01:45 | 16.55 | 5560 | 34800 (2019) | 341 (2014) | 10500 | 419 | 1140 | 1210 | 6630 | 14500 | 26000 | 34300 | ||
| 2026-05-09 00:45 | 16.57 | 5560 | 34800 (2019) | 341 (2014) | 10500 | 419 | 1140 | 1210 | 6630 | 14500 | 26000 | 34300 | ||
| 2026-05-08 23:45 | 16.63 | 5540 | 34800 (2019) | 341 (2014) | 10500 | 419 | 1140 | 1210 | 6630 | 14500 | 26000 | 34300 | ||
| 2026-05-08 22:45 | 16.67 | 5590 | 37600 (2019) | 748 (2014) | 12200 | 775 | 1050 | 1130 | 7800 | 20400 | 32900 | 37600 | ||
| 2026-05-08 21:45 | 16.70 | 5770 | 37600 (2019) | 748 (2014) | 12200 | 775 | 1050 | 1130 | 7800 | 20400 | 32900 | 37600 | ||
| 2026-05-08 20:45 | 16.74 | 5950 | 37600 (2019) | 748 (2014) | 12200 | 775 | 1050 | 1130 | 7800 | 20400 | 32900 | 37600 | ||
| 2026-05-08 19:45 | 16.73 | 5980 | 37600 (2019) | 748 (2014) | 12200 | 775 | 1050 | 1130 | 7800 | 20400 | 32900 | 37600 | ||
| 2026-05-08 18:45 | 16.80 | 6090 | 37600 (2019) | 748 (2014) | 12200 | 775 | 1050 | 1130 | 7800 | 20400 | 32900 | 37600 | ||
| 2026-05-08 17:45 | 16.84 | 6020 | 37600 (2019) | 748 (2014) | 12200 | 775 | 1050 | 1130 | 7800 | 20400 | 32900 | 37600 | ||
| 2026-05-08 16:45 | 16.88 | 5990 | 37600 (2019) | 748 (2014) | 12200 | 775 | 1050 | 1130 | 7800 | 20400 | 32900 | 37600 | ||
| 2026-05-08 15:45 | 16.90 | 6040 | 37600 (2019) | 748 (2014) | 12200 | 775 | 1050 | 1130 | 7800 | 20400 | 32900 | 37600 | ||
| 2026-05-08 14:45 | 16.94 | 5970 | 37600 (2019) | 748 (2014) | 12200 | 775 | 1050 | 1130 | 7800 | 20400 | 32900 | 37600 | ||
| 2026-05-08 13:45 | 16.99 | 6070 | 37600 (2019) | 748 (2014) | 12200 | 775 | 1050 | 1130 | 7800 | 20400 | 32900 | 37600 | ||
| 2026-05-08 12:45 | 17.00 | 6120 | 37600 (2019) | 748 (2014) | 12200 | 775 | 1050 | 1130 | 7800 | 20400 | 32900 | 37600 | ||
| 2026-05-08 11:45 | 17.07 | 5890 | 37600 (2019) | 748 (2014) | 12200 | 775 | 1050 | 1130 | 7800 | 20400 | 32900 | 37600 | ||
| 2026-05-08 10:45 | 17.08 | 6060 | 37600 (2019) | 748 (2014) | 12200 | 775 | 1050 | 1130 | 7800 | 20400 | 32900 | 37600 | ||
| 2026-05-08 09:45 | 17.12 | 6240 | 37600 (2019) | 748 (2014) | 12200 | 775 | 1050 | 1130 | 7800 | 20400 | 32900 | 37600 | ||
| 2026-05-08 08:45 | 17.14 | 6120 | 37600 (2019) | 748 (2014) | 12200 | 775 | 1050 | 1130 | 7800 | 20400 | 32900 | 37600 | ||
| 2026-05-08 07:45 | 17.18 | 6220 | 37600 (2019) | 748 (2014) | 12200 | 775 | 1050 | 1130 | 7800 | 20400 | 32900 | 37600 | ||
| 2026-05-08 06:45 | 17.21 | 6270 | 37600 (2019) | 748 (2014) | 12200 | 775 | 1050 | 1130 | 7800 | 20400 | 32900 | 37600 | ||
| 2026-05-08 05:45 | 17.24 | 6540 | 37600 (2019) | 748 (2014) | 12200 | 775 | 1050 | 1130 | 7800 | 20400 | 32900 | 37600 | ||
| 2026-05-08 04:45 | 17.27 | 6510 | 37600 (2019) | 748 (2014) | 12200 | 775 | 1050 | 1130 | 7800 | 20400 | 32900 | 37600 | ||
| 2026-05-08 03:45 | 17.29 | 6600 | 37600 (2019) | 748 (2014) | 12200 | 775 | 1050 | 1130 | 7800 | 20400 | 32900 | 37600 | ||
| 2026-05-08 02:45 | 17.35 | 6620 | 37600 (2019) | 748 (2014) | 12200 | 775 | 1050 | 1130 | 7800 | 20400 | 32900 | 37600 | ||
| 2026-05-08 01:45 | 17.39 | 6640 | 37600 (2019) | 748 (2014) | 12200 | 775 | 1050 | 1130 | 7800 | 20400 | 32900 | 37600 | ||
| 2026-05-08 00:45 | 17.42 | 6820 | 37600 (2019) | 748 (2014) | 12200 | 775 | 1050 | 1130 | 7800 | 20400 | 32900 | 37600 | ||
| 2026-05-07 23:45 | 17.46 | 6790 | 37600 (2019) | 748 (2014) | 12200 | 775 | 1050 | 1130 | 7800 | 20400 | 32900 | 37600 | ||
| 2026-05-07 22:45 | 17.50 | 6890 | 44600 (2017) | 636 (2015) | 13600 | 659 | 872 | 892 | 9950 | 22300 | 34300 | 44000 | ||
| 2026-05-07 21:45 | 17.53 | 6820 | 44600 (2017) | 636 (2015) | 13600 | 659 | 872 | 892 | 9950 | 22300 | 34300 | 44000 | ||
| 2026-05-07 20:45 | 17.55 | 6820 | 44600 (2017) | 636 (2015) | 13600 | 659 | 872 | 892 | 9950 | 22300 | 34300 | 44000 | ||
| 2026-05-07 19:45 | 17.60 | 6760 | 44600 (2017) | 636 (2015) | 13600 | 659 | 872 | 892 | 9950 | 22300 | 34300 | 44000 | ||
| 2026-05-07 18:45 | 17.61 | 7020 | 44600 (2017) | 636 (2015) | 13600 | 659 | 872 | 892 | 9950 | 22300 | 34300 | 44000 | ||
| 2026-05-07 17:45 | 17.64 | 6940 | 44600 (2017) | 636 (2015) | 13600 | 659 | 872 | 892 | 9950 | 22300 | 34300 | 44000 | ||
| 2026-05-07 16:45 | 17.66 | 6910 | 44600 (2017) | 636 (2015) | 13600 | 659 | 872 | 892 | 9950 | 22300 | 34300 | 44000 | ||
| 2026-05-07 15:45 | 17.72 | 7100 | 44600 (2017) | 636 (2015) | 13600 | 659 | 872 | 892 | 9950 | 22300 | 34300 | 44000 | ||
| 2026-05-07 14:45 | 17.74 | 6980 | 44600 (2017) | 636 (2015) | 13600 | 659 | 872 | 892 | 9950 | 22300 | 34300 | 44000 | ||
| 2026-05-07 13:45 | 17.77 | 7210 | 44600 (2017) | 636 (2015) | 13600 | 659 | 872 | 892 | 9950 | 22300 | 34300 | 44000 | ||
| 2026-05-07 12:45 | 17.82 | 6930 | 44600 (2017) | 636 (2015) | 13600 | 659 | 872 | 892 | 9950 | 22300 | 34300 | 44000 | ||
| 2026-05-07 11:45 | 17.84 | 6800 | 44600 (2017) | 636 (2015) | 13600 | 659 | 872 | 892 | 9950 | 22300 | 34300 | 44000 | ||
| 2026-05-07 10:45 | 17.84 | 6800 | 44600 (2017) | 636 (2015) | 13600 | 659 | 872 | 892 | 9950 | 22300 | 34300 | 44000 | ||
| 2026-05-07 09:45 | 17.89 | 7000 | 44600 (2017) | 636 (2015) | 13600 | 659 | 872 | 892 | 9950 | 22300 | 34300 | 44000 | ||
| 2026-05-07 08:45 | 17.91 | 7050 | 44600 (2017) | 636 (2015) | 13600 | 659 | 872 | 892 | 9950 | 22300 | 34300 | 44000 | ||
| 2026-05-07 07:45 | 17.95 | 6890 | 44600 (2017) | 636 (2015) | 13600 | 659 | 872 | 892 | 9950 | 22300 | 34300 | 44000 | ||
| 2026-05-07 06:45 | 17.99 | 6860 | 44600 (2017) | 636 (2015) | 13600 | 659 | 872 | 892 | 9950 | 22300 | 34300 | 44000 | ||
| 2026-05-07 05:45 | 18.02 | 7000 | 44600 (2017) | 636 (2015) | 13600 | 659 | 872 | 892 | 9950 | 22300 | 34300 | 44000 | ||
| 2026-05-07 04:45 | 18.05 | 6920 | 44600 (2017) | 636 (2015) | 13600 | 659 | 872 | 892 | 9950 | 22300 | 34300 | 44000 | ||
| 2026-05-07 03:45 | 18.09 | 6940 | 44600 (2017) | 636 (2015) | 13600 | 659 | 872 | 892 | 9950 | 22300 | 34300 | 44000 | ||
| 2026-05-07 02:45 | 18.12 | 6860 | 44600 (2017) | 636 (2015) | 13600 | 659 | 872 | 892 | 9950 | 22300 | 34300 | 44000 | ||
| 2026-05-07 01:45 | 18.16 | 6880 | 44600 (2017) | 636 (2015) | 13600 | 659 | 872 | 892 | 9950 | 22300 | 34300 | 44000 | ||
| 2026-05-07 00:45 | 18.20 | 6980 | 44600 (2017) | 636 (2015) | 13600 | 659 | 872 | 892 | 9950 | 22300 | 34300 | 44000 | ||
| 2026-05-06 23:45 | 18.23 | 7170 | 44600 (2017) | 636 (2015) | 13600 | 659 | 872 | 892 | 9950 | 22300 | 34300 | 44000 | ||
| 2026-05-06 22:45 | 18.26 | 6960 | 48200 (2017) | 674 (2015) | 14800 | 700 | 934 | 942 | 11900 | 22300 | 36600 | 47600 | ||
| 2026-05-06 21:45 | 18.30 | 6930 | 48200 (2017) | 674 (2015) | 14800 | 700 | 934 | 942 | 11900 | 22300 | 36600 | 47600 | ||
| 2026-05-06 20:45 | 18.33 | 6810 | 48200 (2017) | 674 (2015) | 14800 | 700 | 934 | 942 | 11900 | 22300 | 36600 | 47600 | ||
| 2026-05-06 19:45 | 18.36 | 7130 | 48200 (2017) | 674 (2015) | 14800 | 700 | 934 | 942 | 11900 | 22300 | 36600 | 47600 | ||
| 2026-05-06 18:45 | 18.39 | 7010 | 48200 (2017) | 674 (2015) | 14800 | 700 | 934 | 942 | 11900 | 22300 | 36600 | 47600 | ||
| 2026-05-06 17:45 | 18.42 | 7110 | 48200 (2017) | 674 (2015) | 14800 | 700 | 934 | 942 | 11900 | 22300 | 36600 | 47600 | ||
| 2026-05-06 16:45 | 18.42 | 7250 | 48200 (2017) | 674 (2015) | 14800 | 700 | 934 | 942 | 11900 | 22300 | 36600 | 47600 | ||
| 2026-05-06 15:45 | 18.48 | 7310 | 48200 (2017) | 674 (2015) | 14800 | 700 | 934 | 942 | 11900 | 22300 | 36600 | 47600 | ||
| 2026-05-06 14:45 | 18.50 | 7190 | 48200 (2017) | 674 (2015) | 14800 | 700 | 934 | 942 | 11900 | 22300 | 36600 | 47600 | ||
| 2026-05-06 13:45 | 18.52 | 48200 (2017) | 674 (2015) | 14800 | 700 | 934 | 942 | 11900 | 22300 | 36600 | 47600 | |||
| 2026-05-06 12:45 | 18.55 | 48200 (2017) | 674 (2015) | 14800 | 700 | 934 | 942 | 11900 | 22300 | 36600 | 47600 | |||
| 2026-05-06 11:45 | 18.58 | 48200 (2017) | 674 (2015) | 14800 | 700 | 934 | 942 | 11900 | 22300 | 36600 | 47600 | |||
| 2026-05-06 10:45 | 18.62 | 48200 (2017) | 674 (2015) | 14800 | 700 | 934 | 942 | 11900 | 22300 | 36600 | 47600 | |||
| 2026-05-06 09:45 | 18.67 | 48200 (2017) | 674 (2015) | 14800 | 700 | 934 | 942 | 11900 | 22300 | 36600 | 47600 | |||
| 2026-05-06 08:45 | 18.71 | 48200 (2017) | 674 (2015) | 14800 | 700 | 934 | 942 | 11900 | 22300 | 36600 | 47600 | |||
| 2026-05-06 07:45 | 18.74 | 48200 (2017) | 674 (2015) | 14800 | 700 | 934 | 942 | 11900 | 22300 | 36600 | 47600 | |||
| 2026-05-06 06:45 | 18.77 | 48200 (2017) | 674 (2015) | 14800 | 700 | 934 | 942 | 11900 | 22300 | 36600 | 47600 | |||
| 2026-05-06 05:45 | 18.81 | 48200 (2017) | 674 (2015) | 14800 | 700 | 934 | 942 | 11900 | 22300 | 36600 | 47600 | |||
| 2026-05-06 04:45 | 18.84 | 48200 (2017) | 674 (2015) | 14800 | 700 | 934 | 942 | 11900 | 22300 | 36600 | 47600 | |||
| 2026-05-06 03:45 | 18.88 | 48200 (2017) | 674 (2015) | 14800 | 700 | 934 | 942 | 11900 | 22300 | 36600 | 47600 | |||
| 2026-05-06 02:45 | 18.91 | 48200 (2017) | 674 (2015) | 14800 | 700 | 934 | 942 | 11900 | 22300 | 36600 | 47600 | |||
| 2026-05-06 01:45 | 18.95 | 48200 (2017) | 674 (2015) | 14800 | 700 | 934 | 942 | 11900 | 22300 | 36600 | 47600 | |||
| 2026-05-06 00:45 | 18.99 | 48200 (2017) | 674 (2015) | 14800 | 700 | 934 | 942 | 11900 | 22300 | 36600 | 47600 | |||
| 2026-05-05 23:45 | 19.02 | 48200 (2017) | 674 (2015) | 14800 | 700 | 934 | 942 | 11900 | 22300 | 36600 | 47600 | |||
| 2026-05-05 22:45 | 19.05 | 49600 (2017) | 878 (2014) | 15300 | 879 | 908 | 971 | 12800 | 22200 | 38000 | 49000 | |||
| 2026-05-05 21:45 | 19.09 | 49600 (2017) | 878 (2014) | 15300 | 879 | 908 | 971 | 12800 | 22200 | 38000 | 49000 | |||
| 2026-05-05 20:45 | 19.12 | 49600 (2017) | 878 (2014) | 15300 | 879 | 908 | 971 | 12800 | 22200 | 38000 | 49000 | |||
| 2026-05-05 19:45 | 19.13 | 49600 (2017) | 878 (2014) | 15300 | 879 | 908 | 971 | 12800 | 22200 | 38000 | 49000 | |||
| 2026-05-05 18:45 | 19.17 | 49600 (2017) | 878 (2014) | 15300 | 879 | 908 | 971 | 12800 | 22200 | 38000 | 49000 | |||
| 2026-05-05 17:45 | 19.21 | 49600 (2017) | 878 (2014) | 15300 | 879 | 908 | 971 | 12800 | 22200 | 38000 | 49000 | |||
| 2026-05-05 16:45 | 19.22 | 49600 (2017) | 878 (2014) | 15300 | 879 | 908 | 971 | 12800 | 22200 | 38000 | 49000 | |||
| 2026-05-05 15:45 | 19.25 | 49600 (2017) | 878 (2014) | 15300 | 879 | 908 | 971 | 12800 | 22200 | 38000 | 49000 | |||
| 2026-05-05 14:45 | 19.28 | 49600 (2017) | 878 (2014) | 15300 | 879 | 908 | 971 | 12800 | 22200 | 38000 | 49000 | |||
| 2026-05-05 13:45 | 19.30 | 49600 (2017) | 878 (2014) | 15300 | 879 | 908 | 971 | 12800 | 22200 | 38000 | 49000 | |||
| 2026-05-05 12:45 | 19.28 | 49600 (2017) | 878 (2014) | 15300 | 879 | 908 | 971 | 12800 | 22200 | 38000 | 49000 | |||
| 2026-05-05 11:45 | 19.30 | 214 | 49600 (2017) | 878 (2014) | 15300 | 879 | 908 | 971 | 12800 | 22200 | 38000 | 49000 | ||
| 2026-05-05 10:45 | 19.29 | 214 | 49600 (2017) | 878 (2014) | 15300 | 879 | 908 | 971 | 12800 | 22200 | 38000 | 49000 | ||
| 2026-05-05 09:45 | 19.29 | 214 | 49600 (2017) | 878 (2014) | 15300 | 879 | 908 | 971 | 12800 | 22200 | 38000 | 49000 | ||
| 2026-05-05 08:45 | 19.29 | 214 | 49600 (2017) | 878 (2014) | 15300 | 879 | 908 | 971 | 12800 | 22200 | 38000 | 49000 | ||
| 2026-05-05 07:45 | 19.33 | 214 | 49600 (2017) | 878 (2014) | 15300 | 879 | 908 | 971 | 12800 | 22200 | 38000 | 49000 | ||
| 2026-05-05 06:45 | 19.32 | 214 | 49600 (2017) | 878 (2014) | 15300 | 879 | 908 | 971 | 12800 | 22200 | 38000 | 49000 | ||
| 2026-05-05 05:45 | 19.35 | 215 | 49600 (2017) | 878 (2014) | 15300 | 879 | 908 | 971 | 12800 | 22200 | 38000 | 49000 | ||
| 2026-05-05 04:45 | 19.38 | 215 | 49600 (2017) | 878 (2014) | 15300 | 879 | 908 | 971 | 12800 | 22200 | 38000 | 49000 | ||
| 2026-05-05 03:45 | 19.39 | 215 | 49600 (2017) | 878 (2014) | 15300 | 879 | 908 | 971 | 12800 | 22200 | 38000 | 49000 | ||
| 2026-05-05 02:45 | 19.44 | 216 | 49600 (2017) | 878 (2014) | 15300 | 879 | 908 | 971 | 12800 | 22200 | 38000 | 49000 | ||
| 2026-05-05 01:45 | 19.47 | 216 | 49600 (2017) | 878 (2014) | 15300 | 879 | 908 | 971 | 12800 | 22200 | 38000 | 49000 | ||
| 2026-05-05 00:45 | 19.49 | 216 | 49600 (2017) | 878 (2014) | 15300 | 879 | 908 | 971 | 12800 | 22200 | 38000 | 49000 | ||
| 2026-05-05 00:00 | 8820 | 49600 (2017) | 878 (2014) | 15300 | 879 | 908 | 971 | 12800 | 22200 | 38000 | 49000 | |||
| 2026-05-04 23:45 | 19.52 | 8830 | 49600 (2017) | 878 (2014) | 15300 | 879 | 908 | 971 | 12800 | 22200 | 38000 | 49000 | ||
| 2026-05-04 22:45 | 19.55 | 8940 | 50200 (2017) | 878 (2015) | 14300 | 890 | 1060 | 1250 | 8810 | 22500 | 33900 | 49000 | ||
| 2026-05-04 21:45 | 19.56 | 8800 | 50200 (2017) | 878 (2015) | 14300 | 890 | 1060 | 1250 | 8810 | 22500 | 33900 | 49000 | ||
| 2026-05-04 20:45 | 19.61 | 8920 | 50200 (2017) | 878 (2015) | 14300 | 890 | 1060 | 1250 | 8810 | 22500 | 33900 | 49000 | ||
| 2026-05-04 19:45 | 19.65 | 9130 | 50200 (2017) | 878 (2015) | 14300 | 890 | 1060 | 1250 | 8810 | 22500 | 33900 | 49000 | ||
| 2026-05-04 18:45 | 19.67 | 8900 | 50200 (2017) | 878 (2015) | 14300 | 890 | 1060 | 1250 | 8810 | 22500 | 33900 | 49000 | ||
| 2026-05-04 17:45 | 19.71 | 8630 | 50200 (2017) | 878 (2015) | 14300 | 890 | 1060 | 1250 | 8810 | 22500 | 33900 | 49000 | ||
| 2026-05-04 16:45 | 19.75 | 9320 | 50200 (2017) | 878 (2015) | 14300 | 890 | 1060 | 1250 | 8810 | 22500 | 33900 | 49000 | ||
| 2026-05-04 15:45 | 19.79 | 9050 | 50200 (2017) | 878 (2015) | 14300 | 890 | 1060 | 1250 | 8810 | 22500 | 33900 | 49000 | ||
| 2026-05-04 14:45 | 19.84 | 9370 | 50200 (2017) | 878 (2015) | 14300 | 890 | 1060 | 1250 | 8810 | 22500 | 33900 | 49000 | ||
| 2026-05-04 13:45 | 19.86 | 9330 | 50200 (2017) | 878 (2015) | 14300 | 890 | 1060 | 1250 | 8810 | 22500 | 33900 | 49000 | ||
| 2026-05-04 12:45 | 19.91 | 9450 | 50200 (2017) | 878 (2015) | 14300 | 890 | 1060 | 1250 | 8810 | 22500 | 33900 | 49000 | ||
| 2026-05-04 11:45 | 19.95 | 221 | 50200 (2017) | 878 (2015) | 14300 | 890 | 1060 | 1250 | 8810 | 22500 | 33900 | 49000 | ||
| 2026-05-04 10:45 | 19.96 | 9860 | 50200 (2017) | 878 (2015) | 14300 | 890 | 1060 | 1250 | 8810 | 22500 | 33900 | 49000 | ||
| 2026-05-04 09:45 | 19.99 | 9880 | 50200 (2017) | 878 (2015) | 14300 | 890 | 1060 | 1250 | 8810 | 22500 | 33900 | 49000 | ||
| 2026-05-04 08:45 | 20.03 | 9900 | 50200 (2017) | 878 (2015) | 14300 | 890 | 1060 | 1250 | 8810 | 22500 | 33900 | 49000 | ||
| 2026-05-04 07:45 | 20.10 | 50200 (2017) | 878 (2015) | 14300 | 890 | 1060 | 1250 | 8810 | 22500 | 33900 | 49000 | |||
| 2026-05-04 06:45 | 20.16 | 50200 (2017) | 878 (2015) | 14300 | 890 | 1060 | 1250 | 8810 | 22500 | 33900 | 49000 | |||
| 2026-05-04 05:45 | 20.22 | 50200 (2017) | 878 (2015) | 14300 | 890 | 1060 | 1250 | 8810 | 22500 | 33900 | 49000 | |||
| 2026-05-04 04:45 | 20.27 | 50200 (2017) | 878 (2015) | 14300 | 890 | 1060 | 1250 | 8810 | 22500 | 33900 | 49000 | |||
| 2026-05-04 03:45 | 20.30 | 50200 (2017) | 878 (2015) | 14300 | 890 | 1060 | 1250 | 8810 | 22500 | 33900 | 49000 | |||
| 2026-05-04 02:45 | 20.34 | 50200 (2017) | 878 (2015) | 14300 | 890 | 1060 | 1250 | 8810 | 22500 | 33900 | 49000 | |||
| 2026-05-04 01:45 | 20.37 | 50200 (2017) | 878 (2015) | 14300 | 890 | 1060 | 1250 | 8810 | 22500 | 33900 | 49000 | |||
| 2026-05-04 00:45 | 20.43 | 50200 (2017) | 878 (2015) | 14300 | 890 | 1060 | 1250 | 8810 | 22500 | 33900 | 49000 | |||
| 2026-05-03 23:45 | 20.48 | 50200 (2017) | 878 (2015) | 14300 | 890 | 1060 | 1250 | 8810 | 22500 | 33900 | 49000 | |||
| 2026-05-03 22:45 | 20.52 | 44300 (2017) | 705 (2018) | 11800 | 742 | 1120 | 1270 | 5300 | 21700 | 23900 | 42300 | |||
| 2026-05-03 21:45 | 20.57 | 44300 (2017) | 705 (2018) | 11800 | 742 | 1120 | 1270 | 5300 | 21700 | 23900 | 42300 | |||
| 2026-05-03 20:45 | 20.62 | 44300 (2017) | 705 (2018) | 11800 | 742 | 1120 | 1270 | 5300 | 21700 | 23900 | 42300 | |||
| 2026-05-03 19:45 | 20.67 | 44300 (2017) | 705 (2018) | 11800 | 742 | 1120 | 1270 | 5300 | 21700 | 23900 | 42300 | |||
| 2026-05-03 18:45 | 20.73 | 44300 (2017) | 705 (2018) | 11800 | 742 | 1120 | 1270 | 5300 | 21700 | 23900 | 42300 | |||
| 2026-05-03 17:45 | 20.78 | 44300 (2017) | 705 (2018) | 11800 | 742 | 1120 | 1270 | 5300 | 21700 | 23900 | 42300 | |||
| 2026-05-03 16:45 | 20.83 | 44300 (2017) | 705 (2018) | 11800 | 742 | 1120 | 1270 | 5300 | 21700 | 23900 | 42300 | |||
| 2026-05-03 15:45 | 20.88 | 44300 (2017) | 705 (2018) | 11800 | 742 | 1120 | 1270 | 5300 | 21700 | 23900 | 42300 | |||
| 2026-05-03 14:45 | 20.96 | 44300 (2017) | 705 (2018) | 11800 | 742 | 1120 | 1270 | 5300 | 21700 | 23900 | 42300 | |||
| 2026-05-03 13:45 | 21.00 | 44300 (2017) | 705 (2018) | 11800 | 742 | 1120 | 1270 | 5300 | 21700 | 23900 | 42300 | |||
| 2026-05-03 12:45 | 21.06 | 44300 (2017) | 705 (2018) | 11800 | 742 | 1120 | 1270 | 5300 | 21700 | 23900 | 42300 | |||
| 2026-05-03 11:45 | 21.10 | 44300 (2017) | 705 (2018) | 11800 | 742 | 1120 | 1270 | 5300 | 21700 | 23900 | 42300 | |||
| 2026-05-03 10:45 | 21.18 | 44300 (2017) | 705 (2018) | 11800 | 742 | 1120 | 1270 | 5300 | 21700 | 23900 | 42300 | |||
| 2026-05-03 09:45 | 21.24 | 44300 (2017) | 705 (2018) | 11800 | 742 | 1120 | 1270 | 5300 | 21700 | 23900 | 42300 | |||
| 2026-05-03 08:45 | 21.29 | 44300 (2017) | 705 (2018) | 11800 | 742 | 1120 | 1270 | 5300 | 21700 | 23900 | 42300 | |||
| 2026-05-03 07:45 | 21.36 | 44300 (2017) | 705 (2018) | 11800 | 742 | 1120 | 1270 | 5300 | 21700 | 23900 | 42300 | |||
| 2026-05-03 06:45 | 21.47 | 44300 (2017) | 705 (2018) | 11800 | 742 | 1120 | 1270 | 5300 | 21700 | 23900 | 42300 | |||
| 2026-05-03 05:45 | 21.52 | 44300 (2017) | 705 (2018) | 11800 | 742 | 1120 | 1270 | 5300 | 21700 | 23900 | 42300 | |||
| 2026-05-03 04:45 | 21.59 | 44300 (2017) | 705 (2018) | 11800 | 742 | 1120 | 1270 | 5300 | 21700 | 23900 | 42300 | |||
| 2026-05-03 03:45 | 21.66 | 44300 (2017) | 705 (2018) | 11800 | 742 | 1120 | 1270 | 5300 | 21700 | 23900 | 42300 | |||
| 2026-05-03 02:45 | 21.74 | 44300 (2017) | 705 (2018) | 11800 | 742 | 1120 | 1270 | 5300 | 21700 | 23900 | 42300 | |||
| 2026-05-03 01:45 | 21.82 | 44300 (2017) | 705 (2018) | 11800 | 742 | 1120 | 1270 | 5300 | 21700 | 23900 | 42300 | |||
| 2026-05-03 00:45 | 21.90 | 44300 (2017) | 705 (2018) | 11800 | 742 | 1120 | 1270 | 5300 | 21700 | 23900 | 42300 | |||
| 2026-05-02 23:45 | 21.97 | 44300 (2017) | 705 (2018) | 11800 | 742 | 1120 | 1270 | 5300 | 21700 | 23900 | 42300 |
A total of 177 rows are displayed for years 2011 through 2020.